Location: Sungai Juaw
(2.6833°N, 113.5333°E)
Time: 23:31:39
(UTC+00:00)

Cosmos 2082 Rocket - Pass Details

Date: 04 August 2024
Orbit: 833 x 852 km, 71.0° (Epoch: 19 September)

Event Time Altitude Azimuth Distance (km) Brightness Sun altitude
Rises 13:18:01 0° 328° (NNW) 3,371 6.0 -38.3°
Reaches altitude 10° 13:20:38 10° 319° (NW) 2,442 5.2 -38.9°
Enters shadow 13:23:27 26° 297° (WNW) 1,608 4.1 -39.5°
